Weather in Krasnyy Partizan

Russia / Republic of Kalmykia     46°05′47″N   42°41′55″E
temp.,
°C
wind,
m/s
gust,
m/s
humid.,
%
clouds,
%
prec.,
mm/h
press.,
hPa
HPBL,
m
11 april, sun
sun1100:00+7wsw3491100 0.0 1020122
03:00+7wsw3393100 0.0 1019115
06:00+8nnw2493100 0.0 1019145
09:00+9nne3484100 0.0 1019377
12:00+13ne346997 0.0 10191018
15:00+15ene3566100 0.0 10181012
18:00+14n2373100 0.0 101746
21:00+11nne2282100 0.0 101716
12 april, mon
mon1200:00+11e2280100 0.0 101618
03:00+9se1179100 0.0 101612
06:00+9wsw3488100 0.0 101771
09:00+12wnw4582100 0.0 1019373
12:00+14wnw2170100 0.3 1019795
15:00+16wsw2264100 0.3 1020859
18:00+13w5785100 0.0 1020231
21:00+10wsw2391100 0.0 1022143
13 april, tue
tue1300:00+10sw1193100 0.0 102134
03:00+10wsw229598 0.0 102168
06:00+10w2295100 0.0 102162
09:00+11wsw2288100 0.0 1022291
12:00+12nw1182100 0.0 1022501
15:00+14sw2272100 0.0 1021660
18:00+13w347889 0.0 1020143
21:00+12nnw2383100 0.0 102085
14 april, wed
wed1400:00+11ene3886100 0.0 1019225
03:00+10e237097 0.1 101854
06:00+9e2367100 0.0 101736
09:00+13se2351100 0.0 1017385
12:00+17s124383 0.0 10171041
15:00+16wsw3455100 0.1 1016243
18:00+13wsw5782100 0.0 1017332
21:00+10wsw359193 0.0 1017107
15 april, thu
thu1500:00+9wsw359575 0.0 101787
03:00+8wsw349591 0.0 101766
06:00+8w1294100 0.0 101715
09:00+14w2273100 0.0 1016383
12:00+18ne225273 0.0 1015903
15:00+20ene3342100 0.0 10131462
18:00+17ene11530 0.0 101413
21:00+15wsw225497 0.0 101415